Location: Boiro
(42.6475°N, 8.8834°W)
Time: 18:07:39
(UTC+01:00)

Tiros 1 despin weight - Pass Details

Date: 06 December 2021
Orbit: 592 x 641 km, 48.2° (Epoch: 25 January)

Event Time Altitude Azimuth Distance (km) Brightness Sun altitude
Rises 20:16:10 0° 290° (WNW) 2,825 ? -23.9°
Reaches altitude 10° 20:18:44 10° 277° (W) 1,923 ? -24.4°
Maximum altitude 20:22:21 25° 221° (SW) 1,206 ? -25.0°
Enters shadow 20:24:52 16° 176° (S) 1,597 ? -25.5°
